Weather History for KBIS - January, 2014

Change the Weather History Date:

Sunday, January 26, 2014

  Actual Average Record
Temperature  
Mean Temperature 15 °F 13 °F  
Max Temperature 36 °F 24 °F 52 °F (1942)
Min Temperature -7 °F 3 °F -38 °F (1950)
Degree Days  
Heating Degree Days 50 52  
Month to date heating degree days 1276 1364  
Since 1 July heating degree days 5006 4864  
Cooling Degree Days 0 0  
Month to date cooling degree days 0 0  
Year to date cooling degree days 0 0  
Moisture  
Dew Point 5 °F    
Average Humidity 71    
Maximum Humidity 86    
Minimum Humidity 56    
Precipitation  
Precipitation 0.13 in 0.01 in 0.34 in (1969)
Month to date precipitation 0.34 0.37  
Year to date precipitation 0.34 0.37  
Snow  
Snow 1.30 in 0.30 in 3.60 in (1969)
Month to date snowfall 5.0 7.7  
Since 1 July snowfall 22.1 28.2  
Snow Depth 1.00 in    
Sea Level Pressure  
Sea Level Pressure 29.88 in    
Wind  
Wind Speed 21 mph (NNW)    
Max Wind Speed 39 mph    
Max Gust Speed 56 mph    
Visibility 4 miles    
Events Fog , Snow    
T = Trace of Precipitation, MM = Missing Value Source: NWS Daily Summary

Daily Weather History Graph

Daily Weather History Graph

Search for Another Location

Airport or City:

Trip Planner

Search our weather history database for the weather conditions in past years. The results will help you decide how hot, cold, wet, or windy it might be!

Date:

Astronomy

Jan. 26, 2014 Rise Set
Actual Time 8:14 AM CST 5:37 PM CST
Civil Twilight 7:41 AM CST 6:10 PM CST
Nautical Twilight 7:04 AM CST 6:47 PM CST
Astronomical Twilight 6:28 AM CST 7:23 PM CST
Moon 3:54 AM CST (1/26) 1:26 PM CST (1/26)
Length of Visible Light 10h 29m
Length of Day
9h 23m
Waning Crescent, 23% of the Moon is Illuminated
Jan 26
Waning Crescent
Jan 30
New
Feb 6
First Quarter
Feb 14
Full
Feb 22
Last Quarter

Hourly Weather History & Observations

Time (CST) Temp. Windchill Dew Point Humidity Pressure Visibility Wind Dir Wind Speed Gust Speed Precip Events Conditions
12:52 AM 35.1 °F 22.5 °F 28.0 °F 76% 29.61 in 10.0 mi NNW 26.5 mph 40.3 mph N/A   Overcast
1:52 AM 33.1 °F 23.9 °F 26.1 °F 75% 29.63 in 10.0 mi NW 12.7 mph 25.3 mph N/A   Overcast
1:59 AM 33.1 °F 21.5 °F 26.1 °F 75% 29.56 in 10.0 mi NW 19.6 mph 31.1 mph N/A   Overcast
2:41 AM 34.0 °F 23.4 °F 26.1 °F 73% 29.56 in 10.0 mi NW 17.3 mph 27.6 mph N/A   Overcast
2:52 AM 33.1 °F 23.9 °F 26.1 °F 75% 29.62 in 10.0 mi North 12.7 mph 24.2 mph N/A   Overcast
3:41 AM 30.9 °F 19.4 °F 25.0 °F 79% 29.54 in 10.0 mi North 17.3 mph 21.9 mph N/A   Overcast
3:52 AM 30.0 °F 20.5 °F 25.0 °F 82% 29.60 in 10.0 mi NNW 11.5 mph - 0.00 in   Overcast
4:01 AM 30.0 °F 20.5 °F 24.1 °F 79% 29.53 in 10.0 mi NNW 11.5 mph - 0.00 in   Overcast
4:52 AM 28.9 °F 22.8 °F 24.1 °F 82% 29.58 in 10.0 mi NNW 5.8 mph - 0.00 in   Overcast
5:29 AM 28.9 °F 22.8 °F 24.1 °F 82% 29.48 in 10.0 mi North 5.8 mph - N/A   Overcast
5:52 AM 28.9 °F 25.2 °F 24.1 °F 82% 29.52 in 10.0 mi WNW 3.5 mph - N/A   Overcast
6:30 AM 28.0 °F 16.5 °F 25.0 °F 88% 29.45 in 2.0 mi NNE 15.0 mph - 0.00 in Snow Light Snow
6:34 AM 28.0 °F 17.5 °F 25.0 °F 88% 29.45 in 1.2 mi NNE 12.7 mph - 0.01 in Snow Light Snow
6:40 AM 28.0 °F 18.6 °F 25.0 °F 88% 29.46 in 0.5 mi NNE 10.4 mph - 0.03 in Fog , Snow Snow
6:47 AM 26.6 °F 14.3 °F 24.8 °F 93% 29.46 in 0.5 mi North 16.1 mph 23.0 mph 0.05 in Fog , Snow Snow
6:52 AM 27.0 °F 16.1 °F 24.1 °F 89% 29.52 in 0.8 mi North 12.7 mph 23.0 mph 0.06 in Snow Light Snow
7:01 AM 27.0 °F 11.9 °F 24.1 °F 89% 29.49 in 0.5 mi North 25.3 mph 32.2 mph 0.01 in Fog , Snow Snow
7:16 AM 25.0 °F 8.6 °F 21.0 °F 85% 29.51 in 0.8 mi North 27.6 mph 43.7 mph 0.01 in Snow Light Snow
7:23 AM 24.1 °F 8.0 °F 19.0 °F 81% 29.52 in 1.0 mi North 25.3 mph 43.7 mph 0.01 in Snow Light Snow
7:36 AM 23.0 °F 5.4 °F 17.1 °F 78% 29.54 in 2.5 mi NNW 29.9 mph 44.9 mph 0.01 in Snow Light Snow
7:52 AM 21.9 °F 4.8 °F 18.0 °F 85% 29.62 in 0.8 mi NNW 26.5 mph 41.4 mph 0.01 in Snow Light Snow
7:59 AM 21.0 °F 3.3 °F 18.0 °F 88% 29.56 in 0.5 mi NNW 27.6 mph 40.3 mph 0.02 in Fog , Snow Snow
8:06 AM 21.0 °F 4.3 °F 17.1 °F 85% 29.56 in 1.0 mi NNW 24.2 mph 39.1 mph 0.02 in Snow Light Snow
8:19 AM 19.9 °F 3.9 °F 15.1 °F 81% 29.57 in 3.0 mi NNW 20.7 mph 35.7 mph 0.02 in Snow Light Snow
8:29 AM 19.9 °F 2.8 °F 12.9 °F 74% 29.58 in 7.0 mi NNW 24.2 mph 38.0 mph 0.02 in Snow Light Snow
8:52 AM 19.9 °F 3.9 °F 12.9 °F 74% 29.68 in 8.0 mi NNW 20.7 mph 33.4 mph 0.02 in Snow Light Snow
9:11 AM 18.0 °F 1.3 °F 10.0 °F 71% 29.63 in 9.0 mi NNW 20.7 mph 40.3 mph 0.00 in   Overcast
9:28 AM 16.0 °F -2.8 °F 10.0 °F 77% 29.66 in 2.0 mi NNW 25.3 mph 42.6 mph 0.00 in Snow Light Snow
9:43 AM 16.0 °F -4.1 °F 10.9 °F 81% 29.68 in 1.0 mi NNW 29.9 mph 35.7 mph 0.00 in Snow Light Snow
9:52 AM 15.1 °F -5.3 °F 9.0 °F 77% 29.75 in 1.5 mi NNW 29.9 mph 42.6 mph 0.00 in Snow Light Snow
10:03 AM 12.9 °F -7.3 °F 8.1 °F 81% 29.70 in 0.8 mi NNW 26.5 mph 40.3 mph 0.00 in Snow Light Snow
10:13 AM 12.9 °F -7.6 °F 7.0 °F 77% 29.72 in 1.0 mi NNW 27.6 mph 38.0 mph 0.00 in Snow Light Snow
10:17 AM 12.9 °F -8.3 °F 7.0 °F 77% 29.73 in 0.5 mi North 29.9 mph 44.9 mph 0.00 in Snow Snow
10:26 AM 12.0 °F -8.5 °F 6.1 °F 77% 29.75 in 0.8 mi NNW 26.5 mph 39.1 mph 0.00 in Snow Light Snow
10:29 AM 10.9 °F -10.3 °F 5.0 °F 77% 29.75 in 0.5 mi NNW 27.6 mph 39.1 mph 0.00 in Snow Snow
10:40 AM 10.9 °F -11.0 °F 5.0 °F 77% 29.77 in 0.2 mi North 29.9 mph 42.6 mph 0.00 in Snow Heavy Snow
10:52 AM 10.0 °F -10.8 °F 6.1 °F 84% 29.86 in 0.2 mi North 25.3 mph 42.6 mph 0.00 in Fog , Snow Snow
11:04 AM 10.9 °F -8.8 °F 5.0 °F 77% 29.79 in 0.8 mi NNW 23.0 mph 34.5 mph 0.00 in Snow Light Snow
11:19 AM 12.0 °F -6.5 °F 3.0 °F 67% 29.81 in 1.5 mi NNW 20.7 mph 35.7 mph 0.00 in Snow Light Snow
11:23 AM 12.0 °F -8.8 °F 1.9 °F 64% 29.81 in 3.0 mi NNW 27.6 mph 38.0 mph 0.00 in Snow Light Snow
11:34 AM 10.0 °F -11.9 °F 3.0 °F 73% 29.83 in 0.8 mi North 28.8 mph 39.1 mph 0.00 in Snow Light Snow
11:39 AM 9.0 °F -13.0 °F 3.0 °F 77% 29.83 in 0.2 mi NNW 27.6 mph 38.0 mph 0.00 in Snow Heavy Snow
11:52 AM 8.1 °F -14.5 °F 1.0 °F 73% 29.93 in 0.5 mi North 28.8 mph 41.4 mph 0.00 in Snow Snow
12:12 PM 7.0 °F -15.3 °F 1.0 °F 77% 29.87 in 0.2 mi NNW 26.5 mph 39.1 mph 0.00 in Snow Heavy Snow
12:23 PM 7.0 °F -14.0 °F 1.9 °F 80% 29.88 in 0.2 mi NNW 23.0 mph 39.1 mph 0.00 in Snow Heavy Snow
12:31 PM 7.0 °F -15.6 °F 3.0 °F 84% 29.89 in 0.2 mi NNW 27.6 mph 40.3 mph 0.00 in Fog , Snow Light Snow
12:52 PM 6.1 °F -16.8 °F 1.9 °F 83% 30.00 in 0.2 mi NNW 27.6 mph 43.7 mph 0.00 in Fog , Snow Light Snow
1:03 PM 6.1 °F -18.2 °F 1.0 °F 80% 29.92 in 0.2 mi NNW 32.2 mph 47.2 mph 0.00 in Snow Heavy Snow
1:24 PM 6.1 °F -17.6 °F -0.0 °F 76% 29.95 in 0.2 mi NNW 29.9 mph 50.6 mph 0.01 in Snow Heavy Snow
1:49 PM 5.0 °F -17.9 °F -0.4 °F 78% 29.98 in 0.2 mi NNW 26.5 mph 43.7 mph 0.02 in Snow Heavy Snow
1:52 PM 3.9 °F -19.4 °F -0.0 °F 84% 30.08 in 0.2 mi NNW 26.5 mph 43.7 mph 0.02 in Fog , Snow Light Snow
2:29 PM 3.9 °F -20.1 °F -2.9 °F 73% 30.03 in 0.5 mi NNW 28.8 mph 42.6 mph 0.01 in Snow Snow
2:39 PM 3.0 °F -22.1 °F -5.1 °F 69% 30.04 in 0.8 mi NW 31.1 mph 44.9 mph 0.01 in Snow Blowing Snow
2:43 PM 3.0 °F -20.6 °F -5.1 °F 69% 30.04 in 1.2 mi NW 26.5 mph 44.9 mph 0.01 in Snow Blowing Snow
2:52 PM 3.0 °F -22.4 °F -5.1 °F 69% 30.15 in 2.5 mi NNW 32.2 mph 43.7 mph 0.01 in Snow Blowing Snow
3:06 PM 1.9 °F -23.6 °F -8.0 °F 63% 30.07 in 7.0 mi NW 31.1 mph 40.3 mph N/A   Mostly Cloudy
3:14 PM 1.9 °F -22.4 °F -6.0 °F 69% 30.08 in 1.8 mi NNW 27.6 mph 38.0 mph 0.00 in Snow Light Snow
3:25 PM 1.9 °F -22.0 °F -6.0 °F 69% 30.09 in 3.0 mi NNW 26.5 mph 40.3 mph 0.00 in Snow Blowing Snow
3:52 PM 1.0 °F -24.0 °F -11.0 °F 57% 30.22 in 8.0 mi NNW 28.8 mph 42.6 mph 0.00 in   Mostly Cloudy
4:01 PM 1.0 °F -23.6 °F -9.0 °F 63% 30.12 in 1.8 mi NNW 27.6 mph 40.3 mph 0.00 in Snow Light Snow
4:12 PM 1.0 °F -24.4 °F -7.1 °F 69% 30.14 in 0.8 mi NW 29.9 mph 44.9 mph 0.00 in Snow Light Snow
4:19 PM 1.0 °F -21.9 °F -7.1 °F 69% 30.14 in 2.0 mi NW 23.0 mph 38.0 mph 0.00 in Snow Blowing Snow
4:26 PM 1.0 °F -23.6 °F -9.0 °F 63% 30.15 in 8.0 mi NW 27.6 mph 38.0 mph 0.00 in   Overcast
4:41 PM -0.0 °F -24.3 °F -9.0 °F 66% 30.17 in 2.5 mi NW 25.3 mph 40.3 mph 0.00 in Snow Blowing Snow
4:52 PM -0.9 °F -27.5 °F -9.9 °F 66% 30.28 in 2.5 mi NW 31.1 mph 41.4 mph 0.00 in Snow Blowing Snow
5:17 PM -2.0 °F -28.6 °F -11.9 °F 63% 30.19 in 7.0 mi NW 29.9 mph 43.7 mph 0.00 in   Overcast
5:52 PM -2.0 °F -23.9 °F -11.9 °F 63% 30.32 in 10.0 mi NW 18.4 mph 34.5 mph 0.01 in   Mostly Cloudy
6:18 PM -2.9 °F -29.4 °F -13.0 °F 62% 30.23 in 10.0 mi NW 28.8 mph 35.7 mph N/A   Scattered Clouds
6:52 PM -2.9 °F -28.1 °F -14.1 °F 59% 30.36 in 10.0 mi NNW 25.3 mph 43.7 mph N/A   Partly Cloudy
7:49 PM -4.0 °F -28.1 °F -13.0 °F 65% 30.27 in 9.0 mi NW 21.9 mph 40.3 mph N/A   Mostly Cloudy
7:52 PM -4.0 °F -30.0 °F -13.0 °F 65% 30.39 in 9.0 mi NNW 26.5 mph 41.4 mph N/A   Mostly Cloudy
8:19 PM -5.1 °F -30.5 °F -15.0 °F 62% 30.28 in 10.0 mi NNW 24.2 mph 41.4 mph N/A   Partly Cloudy
8:52 PM -5.1 °F -26.6 °F -15.0 °F 62% 30.43 in 10.0 mi NW 16.1 mph - N/A   Partly Cloudy
9:37 PM -6.0 °F -26.3 °F -15.0 °F 65% 30.32 in 10.0 mi NW 13.8 mph 31.1 mph N/A   Mostly Cloudy
9:52 PM -6.0 °F -29.6 °F -15.0 °F 65% 30.46 in 10.0 mi NW 19.6 mph 28.8 mph N/A   Overcast
10:52 PM -7.1 °F -31.6 °F -16.1 °F 65% 30.48 in 10.0 mi NW 20.7 mph 27.6 mph N/A   Overcast
11:40 PM -7.1 °F -33.2 °F -16.1 °F 65% 30.34 in 10.0 mi NW 24.2 mph 31.1 mph N/A   Scattered Clouds
11:52 PM -7.1 °F -32.1 °F -17.0 °F 62% 30.49 in 10.0 mi NW 21.9 mph 33.4 mph N/A   Partly Cloudy